Wind_Speed
17 16 16 15 14 14 13 13 13 12 11 11 12 11 11 11 12 13 13 13 13 13 13 13 13 14 15 15 14 14 14 14 14 14 15 16 17 18 18 18 17 16 15 15 15 15 17 18 18 19 20 21 21 20 19 18 17 16 15 15 16 16 16 15 14 14 14 14 14 14 14 14 14 14 14 15 15 15 15 15 16 17 17 18 18
17 17 16 15 14 14 13 13 12 12 11 11 12 12 12 13 13 13 14 14 14 14 14 15 16 16 17 18 18 18 18 18 18 19 19 20 20 21 21 20 20 19 18 18 18 19 20 21 22 22 22 22 21 20 18 17 16 16 16 16 16 16 15 14 13 14 14 15 15 14 14 14 14 14 14 15 15 15 15 15 15 16 16 17 17
17 17 17 15 14 14 13 13 13 12 12 12 13 13 13 14 14 14 14 14 14 15 15 16 17 18 19 20 21 21 22 22 22 22 22 22 22 22 22 21 21 21 21 22 22 23 24 24 24 23 23 21 20 18 17 17 16 16 17 17 16 15 14 14 14 15 15 15 14 14 14 14 14 14 14 15 15 15 14 14 14 15 15 16 16
17 17 17 16 15 14 14 14 14 13 13 14 14 14 14 14 15 15 15 15 15 16 17 18 18 19 20 21 21 22 22 22 22 22 21 21 21 21 21 21 22 22 23 23 24 25 25 25 24 23 21 20 19 18 17 17 17 17 17 16 15 15 15 15 15 15 15 14 14 13 13 14 14 14 15 15 15 15 15 15 14 15 15 16 16
16 17 17 16 16 15 14 14 14 14 14 14 14 14 14 14 15 16 16 16 16 17 18 18 18 18 19 20 20 21 21 20 20 20 19 19 19 19 19 19 20 21 21 22 23 24 24 23 22 21 20 19 18 18 18 18 18 17 16 15 15 15 16 16 16 15 15 14 14 14 14 14 15 15 16 16 16 16 16 16 15 16 16 17 17
16 16 16 16 16 16 15 15 14 14 14 14 14 14 14 14 15 16 17 17 17 17 17 18 18 18 18 18 19 19 19 18 18 18 18 18 17 17 18 18 18 19 20 21 21 22 22 21 21 20 19 18 18 18 18 18 17 16 16 16 16 16 16 15 15 15 14 14 14 14 15 15 16 17 17 17 17 17 17 17 17 17 17 17 18
16 16 16 16 16 16 16 16 15 14 14 14 14 14 15 15 16 17 17 17 17 17 17 18 17 17 17 17 17 18 18 17 17 17 17 17 17 17 17 17 18 18 19 20 20 20 20 20 19 19 19 19 19 19 18 17 16 16 16 16 16 16 15 15 15 15 14 14 14 15 16 16 17 17 17 17 18 18 18 18 19 19 19 19 19
15 16 16 16 16 16 16 16 15 15 14 14 14 14 15 16 16 17 17 17 17 17 17 17 17 17 17 17 17 16 16 16 16 16 16 16 16 16 16 17 17 18 18 19 19 19 19 19 19 19 19 19 18 18 17 16 16 17 17 16 15 15 15 15 15 14 14 14 15 16 17 17 17 18 18 19 19 20 20 20 20 20 20 21 21
15 16 16 16 16 15 15 15 15 14 14 13 13 14 15 15 16 16 17 17 17 17 17 17 17 17 16 16 16 15 15 15 15 16 16 16 16 15 16 16 17 17 18 18 19 19 19 19 19 19 18 18 17 16 16 17 17 16 16 15 15 15 15 15 14 13 14 15 16 17 17 18 19 19 20 20 21 21 21 21 21 22 22 22 22
15 15 16 16 15 15 15 15 14 14 13 13 13 14 14 15 15 15 16 16 17 17 16 16 16 16 16 15 15 14 14 15 15 15 15 15 15 15 15 15 16 17 18 18 18 19 19 19 18 18 17 16 16 16 17 17 16 15 15 15 15 15 14 13 13 14 15 16 17 18 19 20 20 21 21 22 22 22 22 22 23 23 23 23 23
14 14 15 15 15 14 14 14 14 14 13 13 13 13 14 14 14 14 15 15 16 16 16 15 15 15 15 14 14 14 14 15 15 15 14 14 14 14 14 15 16 16 17 17 18 18 18 18 17 17 16 16 16 17 16 15 15 14 15 15 14 14 13 13 14 16 17 18 19 20 21 21 22 22 22 23 23 23 23 23 23 23 23 23 23
13 14 14 14 14 14 13 13 13 14 14 13 13 13 14 14 13 14 14 14 15 15 15 14 14 14 14 13 13 13 14 14 15 15 14 14 14 14 15 15 15 16 17 17 17 17 16 16 16 16 16 17 17 16 15 15 15 15 14 13 13 13 13 15 16 17 19 19 20 21 22 22 23 23 23 24 23 23 23 23 23 23 24 24 24
13 13 13 13 13 13 13 13 13 13 13 13 13 13 13 13 13 13 13 13 14 14 14 14 13 13 12 12 12 13 14 14 14 14 14 14 15 15 15 15 16 16 16 16 15 15 15 15 16 16 17 17 16 15 15 15 14 14 13 13 13 14 15 17 18 19 20 21 21 22 22 23 23 24 24 24 24 24 24 24 24 25 25 26 26
13 13 13 13 12 13 13 13 13 13 13 13 13 13 12 13 13 13 13 13 13 12 13 13 13 12 11 11 12 13 14 13 13 13 13 15 16 16 16 16 16 16 15 15 14 14 14 15 17 17 17 16 16 15 15 14 14 14 14 15 15 16 17 18 19 19 20 21 21 22 23 23 23 23 24 24 24 25 25 25 26 27 27 28 28
13 13 13 13 12 12 13 13 13 14 14 14 14 13 12 12 12 13 13 12 12 12 12 12 12 12 11 11 11 12 13 13 12 12 13 15 17 17 17 17 16 15 15 14 14 14 15 17 18 17 16 16 16 15 15 15 15 16 16 17 17 17 18 19 19 20 20 21 21 22 22 23 23 23 24 24 25 25 26 27 27 28 29 29 30
13 13 13 13 13 12 12 13 13 14 14 14 14 14 13 12 12 12 12 12 12 11 11 11 11 11 11 11 12 12 12 12 11 12 12 14 16 17 17 17 16 15 15 14 15 16 17 18 17 16 16 16 15 15 15 15 16 17 17 17 17 18 18 19 19 19 20 20 21 22 22 23 24 24 25 25 26 27 27 28 28 29 30 30 30
13 13 13 13 13 12 12 13 13 13 14 14 14 14 13 13 12 12 12 12 11 11 10 10 10 11 11 11 12 12 12 11 11 12 12 13 16 17 17 17 16 15 15 16 17 18 18 17 16 16 16 16 15 15 15 16 16 16 16 16 17 17 18 18 18 19 19 20 21 22 23 24 25 25 25 26 27 27 28 29 29 30 30 30 30
13 13 13 13 13 12 12 12 12 13 14 14 14 14 14 13 13 12 11 11 11 11 10 10 10 10 10 10 11 11 11 10 11 12 12 13 15 17 17 17 16 16 16 17 18 18 17 15 16 16 16 15 15 15 15 15 16 15 15 16 16 16 17 17 18 19 19 20 21 23 24 25 25 26 26 27 27 28 28 29 30 30 30 30 31
12 13 13 13 13 13 12 12 12 12 13 13 14 14 14 13 13 12 11 11 10 10 10 10 10 10 10 9 10 10 11 11 11 12 13 13 14 16 17 16 16 16 17 18 18 17 15 15 15 16 15 15 14 14 15 15 15 15 15 15 15 15 16 17 18 18 18 20 22 23 23 24 25 26 27 28 28 29 29 30 30 31 31 31 31
12 13 13 14 13 13 12 12 11 12 12 12 13 13 13 13 12 12 11 11 10 10 10 10 9 10 10 9 9 9 10 11 11 12 13 13 14 16 16 16 16 16 17 18 17 15 14 14 15 14 14 14 13 14 15 15 15 14 14 14 13 14 15 16 17 17 18 20 20 21 22 24 26 27 28 29 29 29 30 30 31 31 31 31 30
13 13 13 14 14 13 13 12 11 11 11 11 12 12 12 12 12 12 12 11 10 10 10 9 9 9 10 10 9 9 10 11 12 12 12 12 13 14 15 15 15 16 17 16 16 14 13 14 14 13 13 12 12 13 14 14 14 13 12 12 12 13 14 15 15 16 17 18 19 20 22 24 26 27 28 29 29 30 30 31 31 32 32 32 31
13 14 14 14 14 13 13 13 12 11 11 11 11 11 11 12 12 12 12 11 11 11 10 9 9 9 10 10 10 10 10 11 11 11 11 11 11 13 14 14 14 15 16 16 15 13 13 13 12 12 11 11 11 12 13 13 12 11 10 10 11 12 13 14 14 14 15 16 18 19 21 23 25 26 27 29 30 30 31 32 32 33 33 33 32
13 14 14 14 13 13 13 13 12 11 11 10 10 10 10 11 11 12 12 12 11 11 11 10 9 10 10 10 10 10 10 11 10 10 11 11 10 11 12 13 14 15 15 15 14 13 12 12 11 11 10 10 10 10 11 11 11 11 9 8 9 11 11 12 13 14 15 15 16 17 19 21 23 24 26 27 28 29 30 31 32 33 33 34 34
13 13 13 13 13 13 13 13 12 12 11 11 11 10 10 10 10 11 11 12 12 11 11 11 10 10 10 10 10 11 11 11 10 10 10 10 10 10 11 12 13 14 15 15 13 12 11 11 11 10 10 9 9 9 9 9 10 10 8 7 8 9 10 11 12 13 13 14 15 16 17 19 21 22 24 25 26 27 28 29 30 32 33 34 34
11 12 12 12 13 13 13 13 13 13 12 12 11 11 11 10 10 10 10 11 11 11 10 10 10 10 10 10 10 10 11 11 10 10 10 10 10 9 10 11 12 13 14 14 13 11 11 11 10 9 9 8 8 8 8 8 9 9 7 6 7 8 9 10 10 11 12 12 13 14 15 17 19 21 22 24 25 26 27 28 29 31 33 34 34
11 11 11 12 12 13 13 13 13 13 13 13 13 12 12 11 10 10 10 10 10 10 10 10 10 10 10 10 10 10 10 10 10 10 10 9 9 9 10 11 12 13 13 13 12 11 11 11 10 9 8 8 7 7 6 6 7 7 5 5 6 7 9 9 9 10 10 11 12 13 15 16 18 20 21 23 25 26 27 28 29 30 32 34 34
12 12 12 12 12 12 13 13 14 14 14 14 14 14 13 12 11 11 10 10 9 9 9 9 9 10 10 10 10 10 10 10 10 10 10 10 10 11 11 12 12 12 12 12 12 11 11 11 10 9 8 7 7 6 5 5 5 5 4 5 5 6 8 9 9 10 10 10 11 13 14 16 17 20 21 23 24 25 26 27 29 30 32 33 33
13 13 13 12 12 13 14 14 15 15 15 15 15 15 14 13 13 12 11 10 10 10 9 9 9 9 10 10 10 10 10 10 10 10 10 11 11 12 12 12 12 12 11 11 12 12 11 11 10 10 9 7 7 5 4 4 3 3 3 4 4 5 7 9 10 11 11 11 12 13 15 16 17 19 21 23 24 25 26 27 29 30 32 33 32
14 14 13 13 13 13 14 14 15 16 16 16 16 16 15 14 14 13 13 12 12 11 10 10 10 10 10 10 10 11 11 11 11 11 11 12 12 12 12 12 12 12 12 12 12 12 11 11 10 10 9 8 7 5 4 3 2 1 0 2 3 4 6 9 10 11 11 12 13 14 15 16 17 19 21 23 24 26 27 28 29 31 32 32 32
15 15 14 14 14 13 14 14 15 16 17 17 17 16 16 15 14 14 14 14 13 12 12 11 10 10 11 11 11 12 12 12 12 12 12 12 13 13 13 13 13 13 13 13 13 12 12 11 11 10 10 9 8 7 5 4 3 3 2 1 2 4 6 8 9 10 11 12 13 14 16 17 17 19 21 23 25 26 27 28 29 30 31 32 32
15 15 14 14 14 14 14 14 15 15 16 16 17 17 16 16 15 15 15 15 14 14 13 12 11 11 11 11 12 12 12 12 12 12 12 13 14 13 13 13 13 13 13 14 13 13 12 12 12 11 11 10 9 8 8 7 5 5 5 3 3 4 6 7 8 9 10 11 12 13 15 17 18 19 21 23 25 26 26 27 29 30 30 31 31
16 15 15 15 15 14 14 14 14 14 15 15 16 16 17 16 16 15 15 15 14 14 14 14 13 12 11 11 11 12 12 12 13 13 13 13 14 14 14 14 14 14 14 14 14 13 13 13 12 12 12 11 10 10 10 9 8 7 7 5 4 5 6 6 7 8 10 10 12 14 15 17 19 20 21 22 24 25 25 26 28 29 30 30 31
16 16 16 15 15 15 14 14 14 14 14 14 15 15 16 16 16 15 15 15 14 15 15 15 14 13 12 11 12 12 12 13 13 14 14 14 15 15 15 14 14 14 14 14 14 14 13 13 12 12 12 11 11 11 11 10 9 9 9 8 7 7 7 7 8 9 10 11 12 14 16 18 20 20 20 21 23 24 24 25 27 28 29 30 31
17 17 17 16 16 16 15 14 14 14 14 14 15 15 15 16 16 15 15 15 15 15 15 15 15 14 13 12 12 12 13 13 14 14 14 14 15 15 15 15 14 14 13 14 14 14 14 13 12 12 11 10 10 11 11 11 10 10 11 10 10 9 9 10 10 11 12 13 14 15 17 19 20 21 20 20 22 23 24 25 26 27 28 29 30
18 18 17 17 17 16 16 15 14 14 14 14 15 15 15 16 15 15 15 15 15 15 15 15 15 14 13 12 12 12 12 13 13 14 14 14 14 14 14 14 14 13 13 13 13 13 13 13 12 11 11 10 10 10 11 10 10 10 11 11 11 10 10 11 12 12 13 14 15 17 18 20 21 21 20 20 21 22 23 24 25 27 28 29 30
20 19 18 17 17 17 17 16 15 15 15 15 15 15 15 16 15 15 15 15 16 16 15 15 15 14 13 13 12 12 12 12 13 14 14 14 14 14 14 13 13 13 13 12 13 13 13 13 12 11 11 11 11 11 11 10 10 10 11 12 12 12 11 12 13 14 14 15 17 18 19 20 21 21 20 19 20 21 22 24 25 26 27 29 30
21 21 19 18 18 18 17 17 16 16 16 15 15 15 15 16 15 15 15 15 16 16 16 16 15 14 13 13 13 12 13 13 13 14 14 14 14 14 14 14 13 13 13 13 13 13 13 13 12 12 12 12 11 11 11 11 11 11 12 12 13 13 13 12 13 14 15 16 17 18 19 20 20 20 20 19 19 20 22 23 24 26 27 28 29
23 22 20 19 19 19 18 18 17 17 16 16 15 15 16 16 16 16 16 15 16 16 17 17 16 15 14 13 13 13 13 13 14 14 14 14 14 14 14 14 14 14 14 13 13 13 13 13 13 12 13 13 13 12 12 12 13 13 13 14 13 13 13 13 13 14 15 15 16 17 18 19 20 20 20 19 19 20 21 23 24 25 27 28 29
24 22 21 21 21 21 20 19 18 17 17 16 16 15 16 17 17 16 16 16 16 16 17 17 17 17 15 14 14 14 14 13 13 13 13 13 13 13 14 13 14 14 14 14 14 14 13 13 13 13 13 13 14 14 12 11 12 13 14 14 14 13 13 13 13 13 13 14 15 17 18 19 20 20 20 20 20 21 21 22 24 25 27 28 29
24 24 23 23 23 22 21 20 19 18 17 17 16 16 17 18 18 18 17 17 16 16 16 17 17 17 17 16 16 15 14 13 13 13 13 13 13 13 13 13 14 14 14 14 14 14 14 14 14 14 13 12 13 13 12 10 10 11 13 14 14 13 12 12 12 12 13 13 14 15 16 17 18 20 20 21 21 21 21 23 24 26 27 28 29
26 25 25 24 24 23 22 22 21 19 18 17 17 17 18 19 19 19 19 18 17 17 17 17 17 17 16 16 16 16 15 14 13 13 13 13 13 13 13 13 14 14 14 14 14 14 14 14 14 14 13 13 14 13 11 10 9 10 12 13 14 13 13 12 12 12 12 13 13 14 15 16 17 19 20 21 21 22 22 23 25 26 28 29 29
28 27 26 25 24 23 23 23 22 20 19 19 19 19 19 20 20 20 20 19 19 18 17 17 17 17 16 16 16 16 15 14 13 13 13 13 13 13 13 13 13 14 14 14 14 14 14 14 15 15 14 14 15 14 13 12 11 11 13 14 15 15 14 14 14 13 13 14 14 14 15 16 17 19 20 21 22 22 23 24 25 26 28 29 29
31 30 28 27 25 24 24 24 23 21 21 21 21 20 20 20 21 22 21 21 20 19 18 18 18 17 17 16 16 16 15 14 14 14 13 13 13 13 13 13 13 13 13 14 14 14 14 14 15 15 15 16 16 16 16 15 14 14 15 17 18 18 18 17 18 17 16 16 16 17 18 18 18 19 20 21 22 22 23 24 25 26 28 29 30
33 32 31 29 28 27 26 25 24 22 22 23 24 23 22 21 22 23 23 23 22 21 20 20 19 19 18 17 16 15 15 15 15 15 14 14 14 14 14 13 13 13 13 14 14 14 14 14 15 15 16 17 17 17 17 17 16 16 17 18 19 20 20 20 21 21 20 19 19 19 20 21 21 21 21 21 22 22 23 24 24 26 28 30 30
34 33 32 31 31 29 28 27 25 24 23 24 25 25 24 23 23 24 24 25 25 24 23 22 21 20 19 18 17 16 16 16 16 16 16 16 16 16 16 15 14 14 14 15 15 15 15 14 14 15 15 16 17 17 17 15 16 16 17 18 19 20 21 22 22 23 22 22 22 22 22 22 23 23 22 22 22 23 23 24 24 25 27 29 30
33 32 32 32 31 31 30 29 28 27 26 26 26 26 26 26 25 25 25 26 27 26 25 24 23 22 21 20 19 18 18 18 17 18 18 18 18 17 17 17 17 16 16 15 16 16 15 14 14 15 15 15 15 17 16 15 15 16 16 17 18 19 20 21 22 23 23 23 23 23 23 23 23 24 24 23 23 23 24 24 24 25 26 28 30
33 32 33 32 32 31 30 30 30 28 28 27 28 27 28 28 28 27 27 27 28 28 28 27 26 25 24 23 22 21 21 20 20 21 21 20 20 19 19 19 19 19 18 17 18 17 16 15 15 16 17 16 16 17 17 17 17 17 17 17 18 20 20 20 21 22 23 23 23 23 23 23 24 24 24 24 24 23 24 24 24 25 26 27 29
33 33 33 32 32 31 31 30 30 29 29 29 29 29 29 30 30 30 28 28 28 28 30 30 29 28 27 26 25 24 24 23 23 23 24 23 22 21 21 22 22 21 20 20 20 19 18 17 16 17 18 18 18 18 19 19 20 20 20 20 20 21 21 20 21 22 22 23 23 23 23 23 24 24 25 25 25 24 24 25 25 25 25 27 29
32 32 32 32 32 31 30 30 29 28 29 30 30 30 30 31 31 30 29 29 29 28 29 31 31 31 30 28 27 27 26 26 26 26 27 26 25 24 24 24 24 23 22 23 23 21 19 18 18 18 18 19 20 20 21 22 23 23 23 22 22 22 22 21 21 22 23 24 24 24 23 23 24 24 25 26 26 26 25 25 25 25 25 26 28
31 31 31 31 30 30 29 29 28 28 29 30 30 30 31 31 31 30 29 29 29 28 29 29 30 31 32 31 31 30 29 29 29 30 30 29 28 27 27 27 26 24 24 27 27 24 21 20 19 20 20 21 22 22 24 25 25 25 24 24 24 23 23 22 22 22 23 24 25 25 24 23 24 24 25 25 26 26 26 26 26 26 25 26 28
29 29 29 29 28 28 28 28 28 28 29 30 30 30 31 31 30 30 29 27 27 27 28 29 29 29 30 32 33 32 31 31 32 33 33 32 31 30 30 30 27 25 27 30 29 26 24 22 22 22 22 22 23 24 25 26 26 25 25 25 24 24 25 25 25 24 24 25 26 26 24 24 25 25 25 25 26 26 27 27 26 25 25 25 27
Wind_Direction
101 101 104 107 110 111 112 111 111 111 110 108 106 105 105 104 103 103 103 103 103 102 101 99 94 89 85 84 85 88 92 97 100 102 102 102 103 105 108 109 111 113 117 122 126 127 127 125 125 124 123 123 123 120 117 114 110 106 101 98 96 95 93 90 86 81 78 77 76 74 71 68 64 61 58 56 54 52 52 51 51 50 47 43 40
101 103 104 106 108 110 111 111 110 110 108 105 104 104 106 106 106 106 107 107 107 108 106 101 95 91 90 90 91 92 94 96 98 99 100 101 102 104 105 107 108 109 112 115 119 121 122 122 122 122 121 120 119 117 115 111 107 103 99 98 97 95 92 87 83 81 79 77 75 71 68 65 63 61 59 56 53 51 51 53 53 50 46 40 36
101 104 105 107 108 108 108 109 110 111 109 107 105 105 105 106 108 110 111 112 113 112 108 103 99 97 97 96 96 96 96 96 97 98 99 100 102 103 104 105 105 106 107 110 113 116 118 119 119 119 118 117 116 115 112 108 104 102 101 100 98 94 90 86 84 82 80 77 73 70 67 65 62 59 56 53 50 48 49 50 49 44 38 33 29
103 105 106 108 109 110 110 110 111 112 111 109 107 105 105 106 109 112 114 116 116 114 110 106 104 103 102 100 99 98 98 98 98 98 99 100 101 103 103 103 103 104 105 108 111 113 115 116 117 116 116 116 115 113 109 106 105 105 104 101 97 93 90 88 86 82 79 75 72 69 66 63 58 54 51 48 46 45 45 44 41 35 29 24 22
102 105 106 108 110 112 113 114 114 113 112 110 108 107 106 109 112 115 116 117 117 115 112 110 109 107 105 103 101 100 99 99 99 99 99 99 100 102 103 103 104 105 106 107 109 111 113 114 115 115 116 115 113 110 108 108 108 106 103 99 96 94 92 88 85 81 77 74 70 66 61 56 52 49 47 45 44 42 41 39 35 30 26 23 21
102 104 106 108 110 112 114 116 116 115 113 111 110 110 111 113 116 117 119 119 118 117 115 114 112 110 107 104 102 101 100 100 100 101 102 102 101 102 103 104 106 107 108 109 111 112 113 114 115 116 116 114 112 111 111 111 109 105 102 100 98 95 91 87 82 78 75 70 66 60 55 52 50 48 46 45 42 41 39 37 34 30 27 24 22
102 104 106 108 109 111 113 114 116 115 114 111 111 112 114 116 118 120 120 121 121 120 119 117 115 112 108 105 103 101 101 102 103 105 105 105 103 104 105 107 109 110 111 113 113 114 115 116 117 117 115 113 113 113 113 111 108 106 104 101 98 93 88 84 79 76 71 66 61 57 54 53 51 49 47 45 43 40 38 35 32 29 26 23 21
102 103 105 107 109 111 113 114 115 116 114 111 109 110 113 117 120 121 122 122 123 123 122 120 118 115 111 107 104 102 102 103 105 107 108 107 106 107 108 110 112 112 113 113 113 114 115 116 115 114 114 115 115 114 112 110 108 107 103 99 94 89 85 81 77 73 67 62 59 57 56 54 52 49 47 44 42 38 35 32 28 25 22 20 18
103 103 104 106 108 110 113 115 117 117 115 111 108 108 112 118 121 122 122 124 125 125 124 123 121 118 114 110 106 104 103 104 107 108 110 110 111 111 112 113 113 112 112 112 113 115 115 115 115 116 117 117 115 113 111 109 107 104 99 95 91 86 83 79 74 68 64 62 61 59 56 53 51 48 46 43 39 36 32 29 25 22 20 18 16
105 105 106 107 108 110 114 117 120 121 119 115 111 110 114 119 121 123 124 125 127 127 128 127 125 122 116 112 108 105 106 107 108 109 110 111 112 113 113 114 114 114 114 115 116 117 117 118 118 118 117 114 112 111 110 107 104 100 95 92 88 85 81 75 69 67 65 64 61 57 54 52 49 47 44 41 38 34 31 28 25 23 20 18 16
106 107 107 108 109 111 114 118 122 125 124 121 117 114 116 120 122 123 125 127 128 129 131 130 129 124 118 113 109 107 108 110 110 109 107 106 106 108 109 110 112 113 114 115 116 117 118 119 118 116 113 112 111 110 107 103 100 96 93 90 87 81 75 71 69 68 66 62 58 55 53 50 48 45 43 40 37 35 32 30 27 25 22 20 18
109 109 109 109 110 111 114 119 124 128 129 129 125 120 120 122 125 126 127 129 130 132 134 134 131 126 121 115 111 109 111 113 113 110 106 104 102 103 105 107 109 111 113 114 116 118 118 116 114 113 113 112 110 107 104 100 98 95 91 86 81 76 73 73 72 69 64 60 57 54 51 49 46 44 41 39 37 36 34 32 30 28 26 24 22
113 112 111 111 111 112 115 120 125 129 133 134 131 126 123 125 129 131 132 132 133 136 138 137 133 127 123 119 115 114 115 115 113 110 109 107 105 104 105 106 107 109 111 113 115 115 115 114 115 114 113 111 108 105 102 99 95 90 85 80 78 78 78 76 71 67 63 60 57 53 51 48 45 43 40 39 38 37 36 34 33 31 29 27 26
118 118 117 115 114 115 117 121 126 131 135 138 137 133 129 128 131 134 135 135 137 140 142 140 134 129 125 121 118 118 118 117 114 112 112 112 110 108 106 106 108 109 110 112 113 113 114 115 115 114 112 109 106 103 99 94 88 84 82 83 83 82 79 74 70 67 64 61 57 54 51 48 45 43 41 40 40 39 38 36 35 32 30 29 27
123 123 123 121 120 119 120 123 127 132 137 141 143 141 137 133 133 134 135 137 139 143 143 140 135 131 127 123 120 119 119 118 116 114 115 115 114 111 110 110 111 112 112 113 113 113 115 115 114 113 110 107 104 99 93 89 85 84 85 85 83 80 76 73 70 67 65 61 58 54 51 48 46 44 42 41 41 40 39 37 36 34 31 30 28
129 128 128 126 126 125 125 126 128 132 137 143 146 147 145 141 137 136 137 139 139 141 142 140 135 132 130 126 123 122 120 119 119 118 118 117 115 113 112 113 114 115 115 115 116 117 117 117 115 112 109 104 99 94 90 88 87 86 85 82 80 78 75 73 71 69 66 62 58 54 51 48 46 44 42 41 41 40 39 38 36 34 32 30 29
135 133 132 131 130 131 131 131 132 134 137 142 147 150 150 148 144 141 139 138 137 137 138 137 134 132 131 129 126 125 124 123 123 122 121 120 117 114 114 114 115 116 117 119 121 121 121 118 115 110 106 100 95 92 90 88 87 85 82 81 79 77 76 75 73 69 65 60 57 54 50 47 45 43 42 41 40 40 39 37 36 34 32 30 29
140 139 137 136 135 135 135 136 137 137 138 141 146 150 153 153 151 149 145 141 139 138 137 135 134 133 133 133 132 130 127 127 127 125 122 122 119 116 116 116 117 119 121 124 125 125 122 117 114 110 105 100 95 91 88 87 86 84 83 82 80 78 78 76 72 67 62 58 55 52 49 47 46 44 42 41 40 40 38 37 36 34 31 30 28
147 145 143 141 140 139 139 140 141 142 142 143 145 149 152 155 154 154 152 150 149 146 143 143 143 141 140 139 137 134 130 129 129 126 124 123 120 118 118 118 120 122 125 128 129 127 122 118 117 113 108 103 97 92 89 87 87 86 85 82 81 80 79 75 70 64 59 56 53 52 52 50 48 46 44 42 40 39 38 36 35 34 31 29 28
153 152 150 147 146 145 144 145 146 146 146 146 147 149 152 154 154 154 153 153 154 153 152 153 153 148 145 142 139 136 131 130 130 127 124 125 123 121 121 122 124 127 130 133 132 128 124 124 123 119 114 108 101 96 93 89 87 86 84 82 81 80 77 73 67 61 58 57 55 55 54 52 49 47 44 43 41 39 37 36 35 34 31 29 27
158 157 156 154 152 151 151 151 152 151 149 149 149 151 154 154 154 152 151 151 152 154 153 155 155 150 144 140 139 137 133 132 132 129 127 128 127 125 125 127 130 132 134 136 135 132 131 132 130 123 117 111 105 101 96 89 85 82 81 80 80 79 75 70 65 60 58 59 56 53 52 50 48 46 44 42 40 38 36 35 34 33 31 29 26
164 163 162 161 159 158 158 157 157 156 156 154 153 155 156 156 154 151 151 152 153 153 150 148 150 147 142 140 140 140 137 136 136 134 132 131 131 130 131 133 135 137 140 142 143 142 141 140 135 125 119 116 111 105 98 91 86 82 78 77 78 78 74 69 64 59 58 58 54 50 49 48 45 43 41 39 37 35 33 32 31 30 29 28 25
170 168 167 166 165 164 164 163 163 164 164 162 161 162 162 159 156 155 156 157 158 156 149 147 150 149 145 145 147 145 142 143 144 140 137 137 138 139 140 140 142 144 147 152 154 151 147 144 138 129 125 122 116 108 100 95 91 83 75 73 75 76 73 68 63 56 54 54 52 48 46 44 42 40 38 36 34 32 30 29 28 28 27 26 23
176 173 172 171 170 170 169 169 170 172 173 172 171 171 171 166 162 161 162 162 164 160 153 153 158 155 153 155 157 155 152 152 154 151 147 146 148 150 150 150 151 154 158 162 161 155 151 151 146 140 135 128 120 113 104 99 93 82 72 71 72 71 68 64 61 55 48 47 47 44 42 40 39 37 34 32 30 29 27 26 25 25 25 23 21
185 181 179 178 178 177 176 176 178 180 181 181 180 180 178 174 170 170 170 170 168 163 160 163 165 162 162 165 167 165 163 164 166 164 160 158 157 158 160 161 162 165 168 169 165 159 156 159 157 153 146 137 130 121 111 104 95 85 72 67 67 65 60 57 59 55 45 41 38 36 35 34 33 33 30 28 26 24 23 22 22 22 22 21 19
193 192 189 189 189 187 185 184 184 186 187 188 189 187 184 181 179 178 177 176 173 169 170 172 170 170 171 172 174 176 174 175 178 176 172 170 167 166 169 172 173 175 176 174 169 165 166 170 170 165 157 149 141 131 122 112 99 90 76 63 59 59 57 52 54 54 44 34 28 24 25 25 26 27 26 23 21 19 18 18 18 18 19 19 16
200 199 199 199 199 196 194 192 191 191 192 193 194 193 189 186 186 185 184 181 179 178 180 178 176 177 177 178 180 182 182 185 188 186 183 182 179 175 176 180 183 182 181 178 176 175 177 180 180 177 171 162 153 147 139 125 104 96 85 64 53 51 54 49 46 47 39 26 20 14 13 15 19 22 23 20 18 16 14 14 14 14 15 15 13
204 204 205 206 205 203 199 199 198 197 197 197 199 197 194 191 190 190 191 188 186 186 185 183 182 182 181 182 185 186 186 190 195 195 194 194 189 184 182 185 187 187 185 184 185 187 188 189 189 188 185 178 171 168 161 145 123 112 94 67 45 39 46 42 37 37 30 20 14 7 3 6 13 18 19 18 15 13 11 10 10 10 10 9 9
205 206 208 209 210 208 204 203 202 202 202 201 202 200 197 195 193 193 194 195 194 192 189 188 188 187 185 184 188 191 190 192 198 200 202 203 198 190 188 189 190 190 191 191 193 196 197 198 199 199 200 198 194 192 188 178 176 189 104 62 30 16 32 34 29 27 22 14 8 2 358 0 8 15 17 15 12 10 8 7 7 7 5 5 5
202 205 207 209 212 211 208 207 206 206 206 205 205 204 201 199 198 197 196 198 198 197 195 195 194 194 193 191 192 195 193 193 199 202 205 209 204 196 193 193 192 194 196 198 201 202 203 206 209 210 213 215 215 216 219 220 225 249 277 330 359 356 13 23 20 16 12 6 1 358 355 355 1 10 14 12 9 7 5 5 4 4 2 1 2
199 203 205 207 210 211 209 208 208 209 209 208 208 207 205 204 203 202 200 200 201 200 201 202 201 201 201 199 198 200 198 195 197 202 206 211 209 203 200 198 197 198 200 203 206 208 209 211 215 218 222 225 228 231 236 240 242 255 273 295 332 340 353 6 9 6 1 356 351 349 349 349 351 0 8 8 5 2 2 1 1 1 360 359 360
199 203 207 209 211 211 210 207 207 209 211 212 211 211 209 208 208 207 204 203 202 203 205 207 207 207 207 205 206 206 205 202 200 200 203 209 211 209 206 204 203 203 204 207 210 212 214 217 220 224 228 232 237 242 247 251 253 258 271 289 309 319 330 345 352 351 348 345 342 339 340 341 343 351 1 4 0 357 357 357 358 357 357 357 358
201 205 210 213 214 214 212 208 206 207 210 214 215 214 212 212 211 210 208 206 205 206 208 209 212 213 211 208 210 210 209 208 207 205 203 206 209 210 210 210 209 207 208 211 214 216 219 222 224 228 234 239 245 252 258 263 265 268 275 289 301 308 318 328 334 334 333 335 335 332 333 334 336 342 353 358 356 353 352 353 354 354 354 354 356
203 206 209 212 214 216 215 211 207 207 209 213 216 216 216 215 214 212 212 211 210 210 211 212 214 217 216 213 213 213 212 211 212 214 213 210 209 210 211 213 215 214 213 215 217 219 223 226 228 231 238 243 249 256 264 271 275 277 282 290 298 305 311 315 318 320 320 323 325 326 327 328 331 336 345 352 352 349 348 350 350 351 351 352 354
205 207 208 210 212 214 216 214 211 209 210 212 215 217 217 217 216 215 215 215 215 215 215 216 217 218 219 218 216 215 215 216 216 217 220 220 218 216 215 215 219 222 223 223 224 225 227 231 233 237 243 248 251 255 263 270 275 278 283 288 293 297 300 302 303 306 310 314 318 321 322 324 328 332 338 345 348 346 346 347 348 348 349 350 353
206 208 208 210 212 214 216 216 214 212 212 213 214 216 217 217 217 217 217 219 220 219 219 221 223 222 220 220 219 218 218 219 219 219 221 222 223 223 222 221 222 226 230 232 233 234 236 239 241 245 251 255 258 261 267 274 276 278 282 288 292 296 299 299 300 304 309 313 316 319 321 324 327 330 334 340 344 344 344 344 345 346 348 350 352
208 208 207 208 211 214 216 218 218 217 216 216 216 216 216 217 217 218 219 221 222 223 222 223 225 226 223 219 219 220 220 219 219 220 221 222 224 225 226 227 227 229 233 237 240 243 246 249 252 255 259 265 271 273 276 282 287 288 291 293 296 299 301 302 304 309 314 317 318 321 323 325 327 329 332 337 342 343 343 344 344 346 347 349 351
210 210 208 208 211 214 218 220 222 222 221 220 220 218 216 216 217 218 219 221 223 223 223 223 224 224 223 219 217 218 220 219 218 218 219 222 225 228 230 232 233 234 238 242 245 248 251 256 260 263 265 270 276 280 282 285 291 296 298 300 303 304 307 311 314 316 318 320 323 326 328 329 330 333 336 340 343 344 344 345 345 345 347 349 350
213 212 210 209 211 215 218 220 224 226 227 226 225 222 218 217 216 217 218 220 221 221 221 222 223 222 221 219 218 218 217 217 218 218 219 221 224 228 230 233 235 237 241 244 247 250 253 258 262 266 269 272 274 279 284 286 289 295 298 301 308 313 315 319 322 324 325 328 329 331 334 335 336 339 342 344 345 346 346 346 346 346 347 348 348
217 216 214 213 214 216 218 220 223 227 229 231 230 227 222 219 218 218 219 219 220 221 221 222 224 224 223 220 218 219 218 217 218 218 219 221 223 226 227 230 234 237 241 243 246 250 253 256 260 264 269 272 273 277 283 287 289 291 294 299 309 318 323 325 328 328 329 332 332 333 336 339 340 342 345 347 347 346 346 346 347 347 347 347 346
222 221 220 218 218 219 220 221 223 226 228 232 234 232 228 224 221 220 220 221 221 222 222 223 225 226 226 224 223 222 220 220 220 220 222 223 225 228 229 231 235 239 243 245 247 250 253 256 260 264 268 272 276 279 280 283 285 286 290 296 302 310 317 321 324 325 324 327 329 330 333 338 340 342 345 347 347 346 347 347 347 347 346 345 344
228 227 226 224 223 223 224 225 225 225 227 230 233 234 232 229 227 225 224 223 223 223 224 225 226 226 227 227 228 228 226 225 224 223 224 225 227 232 233 234 238 242 246 249 251 253 255 257 261 266 269 272 278 283 284 283 282 281 285 289 293 297 302 306 310 312 314 316 319 322 324 329 334 337 340 343 344 344 346 346 347 347 346 344 342
231 231 231 230 228 227 228 230 230 227 227 230 233 234 234 233 231 229 227 227 227 227 226 226 227 228 229 230 232 233 232 232 230 229 229 229 231 235 237 237 239 243 247 251 254 256 258 261 264 269 271 273 278 283 286 287 287 285 284 286 288 291 294 297 300 303 305 307 309 311 313 317 322 325 329 333 336 339 341 343 345 346 345 344 342
232 233 234 234 234 233 233 234 234 232 229 231 234 236 235 234 233 231 230 230 229 230 229 229 229 229 230 232 234 235 236 237 237 235 235 235 235 238 241 240 240 242 245 250 253 256 258 261 264 268 272 276 280 284 288 292 294 292 290 289 290 292 294 295 295 297 300 303 304 305 307 309 312 314 317 321 325 329 333 336 339 341 343 343 342
235 235 236 236 237 237 238 238 238 236 234 234 237 238 237 236 235 232 231 230 230 230 230 231 232 231 231 232 233 236 238 240 240 240 240 240 240 241 242 243 242 242 243 247 252 256 260 263 267 271 275 280 283 287 292 297 298 296 295 295 295 295 295 296 297 299 301 302 304 305 305 307 308 308 310 312 315 318 322 327 331 335 339 341 341
238 238 238 238 238 238 239 239 239 239 238 238 239 240 240 239 238 236 233 232 231 230 230 231 232 233 233 233 232 234 237 240 241 242 241 241 242 242 244 245 246 246 247 249 252 256 261 266 271 274 278 284 287 290 295 300 299 297 297 297 297 297 298 301 304 304 303 304 305 305 305 306 307 308 309 309 310 311 313 318 323 328 334 338 339
238 238 239 239 239 238 238 239 239 239 240 241 241 242 242 242 241 240 237 235 233 231 230 230 231 233 234 234 233 234 236 239 241 242 243 243 244 244 245 245 247 249 250 251 253 256 260 265 271 275 279 285 289 291 295 298 298 297 298 299 298 300 305 309 310 308 306 306 306 306 305 305 306 308 309 309 310 309 309 312 316 322 329 334 337
237 238 240 240 240 240 240 239 239 239 240 241 242 242 243 244 244 243 242 240 238 234 232 231 230 232 234 234 234 234 235 237 240 243 245 245 245 246 246 246 247 249 251 253 254 256 258 262 268 273 277 282 287 290 292 294 295 296 298 300 300 303 308 311 311 310 310 309 308 308 307 306 306 308 309 310 312 311 310 310 311 316 323 328 333
238 239 241 242 243 243 243 243 242 240 240 241 241 242 244 245 246 246 245 244 243 241 238 235 233 232 233 234 235 236 236 238 240 243 245 247 247 248 249 250 250 251 253 256 257 257 259 262 267 271 276 281 285 288 290 291 293 295 297 298 299 302 305 308 308 309 310 309 309 310 311 309 307 308 309 310 313 313 312 312 311 313 317 323 328
238 239 241 243 244 246 247 246 245 243 242 242 243 243 245 247 248 248 248 247 247 247 246 243 240 237 236 235 236 236 237 239 241 242 245 246 247 248 250 252 253 255 257 259 260 261 262 264 267 270 274 278 281 285 287 289 292 295 296 299 301 304 306 307 307 307 307 307 306 308 310 310 309 309 309 311 313 313 313 313 312 312 314 318 323
237 238 240 241 243 244 245 246 245 244 244 245 246 246 247 249 251 252 252 251 251 251 250 250 248 245 242 240 240 239 238 240 242 244 245 247 247 248 251 253 255 258 261 261 262 264 265 265 266 267 269 272 277 280 283 287 291 294 297 300 304 306 308 308 309 308 308 306 305 306 307 308 307 308 309 310 311 312 312 314 314 313 313 314 318
Height
5928 5928 5929 5930 5930 5931 5931 5932 5932 5933 5933 5934 5934 5934 5935 5935 5935 5935 5936 5936 5937 5937 5937 5938 5938 5937 5938 5938 5938 5938 5939 5939 5940 5940 5940 5940 5941 5941 5942 5942 5942 5943 5943 5944 5944 5945 5946 5947 5948 5949 5950 5951 5952 5953 5954 5955 5955 5955 5956 5956 5956 5956 5956 5956 5956 5955 5955 5955 5954 5954 5953 5953 5952 5951 5950 5949 5948 5947 5946 5945 5944 5943 5941 5940 5939
5930 5930 5931 5931 5932 5932 5933 5934 5934 5935 5935 5936 5936 5936 5936 5937 5937 5937 5937 5938 5938 5939 5939 5939 5940 5940 5940 5940 5940 5940 5941 5941 5942 5942 5942 5943 5943 5943 5944 5944 5944 5945 5945 5945 5946 5947 5948 5949 5950 5951 5952 5953 5954 5955 5956 5956 5957 5957 5957 5957 5957 5958 5957 5957 5957 5957 5956 5956 5956 5955 5955 5954 5953 5952 5951 5950 5949 5948 5947 5946 5945 5944 5943 5941 5940
5932 5932 5933 5933 5934 5934 5935 5935 5936 5937 5937 5937 5937 5938 5938 5938 5938 5939 5939 5940 5940 5941 5941 5942 5942 5942 5942 5942 5942 5943 5943 5943 5944 5945 5945 5945 5946 5946 5946 5947 5947 5947 5947 5948 5948 5949 5950 5951 5952 5953 5955 5956 5957 5957 5957 5958 5958 5958 5959 5959 5959 5959 5959 5959 5958 5958 5958 5957 5957 5957 5956 5955 5954 5953 5952 5951 5950 5949 5948 5947 5946 5945 5943 5942 5941
5934 5934 5934 5935 5935 5936 5936 5937 5938 5938 5939 5939 5939 5939 5940 5940 5940 5941 5941 5942 5943 5943 5943 5944 5944 5944 5945 5945 5945 5945 5946 5946 5947 5947 5948 5948 5948 5949 5949 5949 5950 5950 5950 5951 5951 5952 5953 5954 5955 5956 5957 5957 5958 5959 5959 5959 5960 5960 5960 5960 5960 5960 5960 5960 5960 5959 5959 5959 5958 5958 5957 5956 5955 5954 5953 5952 5951 5950 5949 5948 5946 5945 5944 5943 5941
5936 5936 5936 5937 5937 5938 5938 5939 5939 5940 5941 5941 5941 5941 5941 5942 5942 5943 5943 5944 5944 5945 5945 5946 5946 5947 5947 5947 5947 5948 5948 5948 5949 5950 5950 5951 5951 5951 5951 5952 5952 5953 5953 5954 5954 5955 5955 5956 5957 5958 5958 5959 5960 5960 5960 5961 5961 5961 5961 5962 5961 5961 5961 5961 5961 5961 5961 5960 5960 5959 5958 5957 5956 5955 5954 5953 5952 5951 5950 5948 5947 5946 5945 5943 5942
5937 5938 5938 5938 5939 5939 5940 5940 5941 5942 5942 5942 5943 5943 5943 5944 5944 5944 5945 5945 5946 5947 5947 5947 5948 5949 5949 5949 5949 5950 5950 5951 5951 5952 5952 5953 5953 5953 5954 5954 5954 5955 5956 5956 5957 5957 5958 5958 5959 5959 5960 5960 5961 5962 5962 5962 5963 5963 5963 5963 5963 5963 5963 5963 5963 5962 5962 5962 5961 5960 5959 5958 5957 5956 5955 5954 5953 5952 5950 5949 5948 5946 5945 5944 5942
5939 5939 5939 5940 5940 5941 5941 5942 5942 5943 5944 5944 5944 5945 5945 5945 5945 5946 5946 5947 5948 5948 5949 5949 5950 5950 5951 5951 5951 5952 5952 5952 5953 5953 5954 5954 5955 5955 5956 5956 5956 5957 5958 5958 5959 5959 5959 5960 5960 5961 5962 5962 5963 5963 5963 5964 5964 5964 5964 5964 5964 5965 5964 5964 5964 5964 5963 5963 5962 5961 5961 5960 5958 5957 5956 5955 5954 5952 5951 5950 5948 5947 5945 5944 5943
5940 5940 5940 5941 5941 5942 5942 5943 5944 5944 5945 5945 5946 5946 5946 5946 5947 5947 5948 5948 5949 5950 5950 5951 5951 5952 5952 5952 5953 5953 5954 5954 5955 5955 5956 5956 5957 5957 5958 5958 5958 5959 5959 5960 5960 5961 5961 5962 5962 5963 5963 5964 5964 5965 5965 5965 5966 5966 5966 5966 5966 5966 5966 5966 5965 5965 5965 5964 5963 5963 5962 5961 5959 5958 5957 5956 5954 5953 5952 5950 5949 5947 5946 5944 5943
5941 5942 5942 5942 5943 5943 5944 5944 5945 5945 5946 5946 5947 5947 5947 5947 5948 5948 5949 5950 5950 5951 5952 5952 5953 5953 5954 5954 5954 5955 5955 5956 5956 5957 5958 5958 5959 5959 5960 5960 5960 5961 5961 5962 5962 5962 5963 5964 5964 5965 5965 5965 5966 5966 5967 5967 5967 5968 5968 5968 5968 5967 5967 5967 5967 5966 5966 5965 5965 5964 5963 5961 5960 5959 5958 5957 5955 5954 5952 5951 5949 5948 5946 5945 5943
5943 5943 5943 5943 5944 5944 5945 5945 5946 5946 5947 5947 5948 5948 5949 5949 5949 5950 5950 5951 5952 5953 5953 5954 5954 5955 5955 5955 5956 5956 5956 5957 5958 5959 5959 5960 5960 5961 5961 5962 5962 5963 5963 5963 5964 5964 5965 5965 5966 5966 5967 5967 5968 5968 5969 5969 5969 5969 5969 5969 5969 5969 5969 5968 5968 5968 5967 5966 5965 5964 5963 5962 5961 5960 5959 5958 5956 5955 5953 5952 5950 5949 5947 5945 5944
5944 5944 5944 5945 5945 5945 5946 5947 5947 5947 5948 5948 5949 5950 5950 5950 5951 5951 5952 5953 5953 5954 5955 5955 5956 5956 5957 5957 5957 5958 5958 5959 5959 5960 5961 5962 5962 5963 5963 5964 5964 5965 5965 5965 5966 5966 5967 5967 5967 5968 5969 5969 5970 5970 5971 5971 5971 5971 5971 5971 5970 5970 5970 5970 5969 5969 5968 5967 5966 5965 5964 5963 5962 5961 5960 5959 5957 5956 5954 5953 5951 5950 5948 5946 5945
5945 5945 5946 5946 5946 5947 5947 5948 5948 5949 5949 5950 5950 5951 5952 5952 5952 5953 5953 5954 5955 5955 5956 5957 5957 5958 5958 5958 5959 5959 5960 5960 5961 5962 5962 5963 5964 5964 5965 5966 5966 5967 5967 5967 5968 5968 5969 5969 5970 5970 5971 5971 5972 5972 5972 5972 5972 5972 5972 5972 5972 5971 5971 5971 5970 5970 5969 5968 5967 5966 5965 5964 5963 5962 5961 5960 5959 5957 5956 5954 5952 5951 5949 5947 5945
5946 5946 5947 5947 5947 5948 5948 5949 5949 5950 5951 5951 5952 5952 5953 5953 5954 5954 5955 5955 5956 5957 5957 5958 5958 5959 5959 5960 5960 5960 5961 5962 5962 5963 5964 5964 5965 5966 5966 5967 5968 5969 5969 5969 5970 5970 5971 5971 5971 5972 5972 5973 5973 5973 5973 5973 5973 5973 5973 5973 5973 5973 5972 5972 5971 5971 5970 5969 5969 5968 5967 5966 5965 5964 5962 5961 5960 5958 5957 5955 5953 5952 5950 5948 5946
5947 5948 5948 5948 5949 5949 5950 5950 5951 5951 5952 5952 5953 5954 5954 5955 5955 5956 5956 5957 5957 5958 5959 5959 5960 5960 5961 5961 5961 5962 5962 5963 5964 5965 5965 5965 5966 5967 5967 5968 5969 5970 5971 5971 5972 5972 5972 5973 5973 5973 5974 5974 5974 5975 5975 5975 5974 5974 5974 5974 5974 5974 5974 5973 5973 5972 5972 5971 5970 5969 5968 5967 5966 5965 5964 5963 5961 5960 5958 5956 5954 5952 5951 5949 5947
5948 5949 5949 5950 5950 5950 5951 5951 5952 5952 5953 5953 5954 5955 5955 5956 5956 5957 5957 5958 5959 5959 5960 5960 5961 5961 5962 5962 5963 5963 5964 5964 5965 5966 5967 5967 5967 5967 5968 5969 5970 5971 5972 5972 5973 5973 5974 5974 5975 5975 5975 5976 5976 5976 5976 5976 5976 5976 5975 5975 5975 5975 5975 5974 5974 5973 5973 5972 5971 5971 5970 5969 5968 5966 5965 5964 5962 5961 5959 5957 5955 5953 5951 5949 5947
5949 5950 5950 5951 5951 5952 5952 5952 5953 5953 5954 5954 5955 5955 5956 5957 5957 5958 5958 5959 5959 5960 5961 5961 5962 5962 5963 5963 5964 5964 5965 5966 5967 5967 5968 5968 5968 5969 5969 5970 5971 5972 5972 5973 5974 5975 5975 5976 5976 5976 5977 5977 5977 5977 5977 5977 5977 5977 5977 5977 5977 5976 5976 5976 5975 5975 5974 5974 5973 5972 5971 5970 5969 5967 5966 5965 5963 5962 5960 5958 5956 5954 5952 5950 5948
5950 5951 5951 5952 5952 5952 5953 5953 5954 5954 5955 5955 5956 5956 5957 5957 5958 5958 5959 5960 5960 5961 5962 5962 5963 5963 5964 5964 5965 5965 5966 5967 5968 5968 5969 5970 5970 5970 5970 5971 5972 5972 5973 5974 5975 5976 5976 5977 5977 5978 5978 5978 5978 5978 5978 5978 5978 5978 5978 5978 5978 5978 5977 5977 5977 5976 5975 5975 5974 5973 5972 5971 5970 5968 5967 5966 5964 5962 5961 5959 5957 5955 5953 5951 5949
5951 5952 5952 5953 5953 5953 5954 5954 5955 5955 5956 5956 5956 5957 5958 5958 5958 5959 5960 5960 5961 5962 5962 5963 5964 5964 5965 5965 5966 5967 5967 5968 5969 5969 5970 5971 5971 5971 5971 5972 5973 5973 5974 5975 5976 5977 5977 5978 5978 5979 5979 5979 5979 5979 5979 5979 5979 5979 5979 5979 5979 5979 5979 5978 5978 5977 5976 5976 5975 5974 5973 5972 5971 5969 5968 5966 5965 5963 5962 5960 5958 5956 5954 5952 5950
5952 5952 5953 5953 5954 5954 5955 5955 5956 5956 5957 5957 5957 5958 5958 5959 5959 5959 5960 5961 5962 5962 5963 5964 5964 5965 5966 5966 5967 5968 5968 5969 5970 5970 5971 5972 5972 5972 5972 5973 5974 5974 5975 5976 5977 5977 5978 5979 5979 5979 5980 5980 5980 5980 5980 5980 5980 5980 5980 5980 5980 5980 5980 5979 5978 5978 5977 5977 5976 5975 5974 5973 5972 5970 5969 5967 5966 5964 5963 5961 5959 5957 5955 5953 5951
5952 5953 5953 5954 5954 5955 5955 5956 5956 5957 5957 5958 5958 5958 5959 5959 5960 5960 5961 5961 5962 5963 5963 5964 5965 5966 5966 5967 5968 5968 5969 5969 5970 5971 5972 5973 5973 5973 5973 5973 5974 5975 5976 5977 5977 5978 5979 5979 5980 5980 5980 5981 5981 5981 5981 5981 5981 5982 5982 5981 5981 5981 5980 5980 5979 5979 5978 5978 5977 5976 5975 5974 5972 5971 5970 5968 5967 5965 5964 5962 5960 5958 5956 5954 5951
5952 5953 5954 5954 5955 5955 5956 5956 5957 5957 5958 5958 5959 5959 5960 5960 5961 5961 5962 5962 5963 5964 5964 5965 5966 5967 5967 5968 5968 5969 5970 5970 5971 5972 5973 5974 5974 5974 5974 5974 5975 5976 5977 5977 5978 5979 5979 5979 5980 5980 5981 5982 5982 5982 5982 5982 5982 5983 5983 5983 5982 5982 5981 5981 5980 5980 5979 5979 5978 5977 5976 5974 5973 5972 5970 5969 5968 5966 5964 5963 5961 5959 5956 5954 5952
5953 5953 5954 5954 5955 5956 5956 5957 5957 5958 5958 5959 5959 5960 5960 5961 5961 5962 5962 5963 5964 5964 5965 5966 5967 5967 5968 5968 5969 5970 5970 5971 5972 5972 5973 5974 5975 5975 5975 5975 5976 5976 5977 5978 5979 5979 5979 5980 5981 5981 5982 5983 5983 5983 5983 5983 5983 5983 5984 5983 5983 5982 5982 5981 5981 5981 5980 5979 5979 5978 5977 5975 5974 5972 5971 5969 5968 5966 5964 5963 5961 5959 5957 5954 5953
5953 5953 5954 5955 5955 5956 5957 5957 5958 5958 5959 5959 5960 5960 5961 5961 5962 5962 5963 5964 5964 5965 5965 5966 5967 5968 5968 5969 5970 5970 5971 5972 5973 5973 5974 5975 5976 5976 5976 5976 5977 5977 5978 5978 5979 5979 5980 5981 5982 5982 5983 5983 5984 5984 5984 5984 5984 5984 5984 5984 5984 5983 5983 5982 5982 5981 5981 5980 5979 5978 5977 5976 5974 5972 5971 5969 5968 5966 5965 5963 5961 5959 5957 5955 5953
5953 5954 5954 5955 5955 5956 5957 5957 5958 5959 5959 5960 5960 5961 5961 5962 5962 5963 5964 5964 5965 5965 5965 5966 5967 5968 5968 5969 5970 5971 5971 5972 5973 5974 5975 5976 5976 5977 5977 5977 5977 5978 5978 5979 5979 5980 5981 5982 5982 5983 5983 5984 5984 5984 5984 5985 5985 5985 5985 5985 5984 5984 5983 5983 5982 5982 5981 5981 5980 5979 5978 5976 5974 5973 5971 5970 5968 5967 5965 5964 5962 5960 5958 5955 5953
5954 5954 5955 5955 5956 5956 5957 5957 5958 5959 5959 5960 5961 5961 5961 5962 5962 5963 5964 5965 5965 5965 5966 5967 5967 5968 5968 5969 5970 5971 5972 5973 5974 5974 5975 5976 5977 5977 5978 5978 5978 5978 5979 5979 5980 5981 5981 5982 5982 5983 5984 5984 5984 5985 5985 5985 5985 5985 5985 5985 5985 5984 5984 5983 5983 5982 5982 5981 5980 5979 5978 5976 5974 5973 5971 5970 5969 5967 5966 5964 5962 5960 5958 5955 5953
5954 5955 5955 5955 5956 5956 5957 5957 5958 5959 5959 5960 5961 5961 5962 5962 5963 5963 5964 5965 5965 5966 5966 5967 5967 5968 5969 5969 5970 5971 5972 5973 5974 5974 5975 5976 5977 5977 5978 5978 5979 5979 5979 5980 5980 5981 5981 5982 5982 5983 5984 5984 5985 5985 5985 5986 5985 5985 5986 5985 5985 5984 5984 5984 5983 5982 5981 5981 5980 5979 5978 5977 5975 5973 5971 5970 5968 5967 5965 5964 5962 5960 5957 5955 5953
5954 5955 5955 5956 5956 5957 5957 5958 5958 5959 5959 5960 5960 5961 5962 5962 5962 5963 5964 5965 5965 5966 5967 5967 5967 5968 5969 5969 5970 5971 5972 5973 5974 5974 5975 5976 5976 5977 5978 5978 5979 5979 5979 5980 5981 5981 5981 5982 5982 5983 5984 5984 5985 5985 5985 5986 5985 5985 5986 5985 5985 5985 5984 5984 5983 5982 5981 5981 5980 5979 5978 5977 5975 5973 5971 5970 5968 5967 5965 5963 5962 5959 5957 5955 5954
5954 5955 5955 5956 5956 5957 5957 5958 5958 5959 5959 5960 5960 5961 5961 5961 5962 5963 5964 5965 5965 5966 5967 5967 5967 5968 5969 5969 5970 5971 5972 5973 5973 5974 5975 5975 5976 5977 5977 5978 5978 5979 5979 5980 5980 5981 5981 5982 5982 5983 5983 5984 5985 5985 5985 5985 5985 5985 5985 5985 5985 5985 5984 5983 5983 5982 5981 5980 5980 5979 5978 5977 5975 5973 5971 5970 5968 5967 5965 5963 5961 5959 5957 5955 5954
5954 5954 5955 5956 5956 5957 5957 5958 5958 5959 5959 5959 5960 5960 5961 5961 5962 5962 5963 5964 5965 5966 5967 5967 5968 5968 5968 5969 5970 5970 5971 5972 5973 5974 5974 5975 5976 5976 5977 5977 5978 5979 5979 5980 5980 5980 5981 5982 5982 5983 5983 5984 5984 5985 5985 5985 5985 5985 5985 5984 5984 5984 5983 5982 5982 5981 5981 5980 5979 5978 5978 5976 5975 5972 5971 5969 5968 5966 5965 5963 5961 5959 5957 5955 5953
5953 5954 5955 5955 5956 5957 5957 5958 5958 5959 5959 5959 5960 5960 5960 5961 5961 5962 5962 5963 5964 5966 5966 5967 5968 5968 5968 5969 5969 5970 5970 5971 5972 5973 5974 5975 5975 5976 5976 5977 5977 5978 5979 5979 5980 5980 5981 5982 5982 5982 5983 5984 5984 5985 5985 5985 5985 5985 5984 5984 5984 5983 5983 5982 5982 5981 5980 5979 5979 5978 5977 5976 5974 5972 5970 5968 5967 5965 5964 5962 5960 5958 5957 5955 5953
5953 5954 5954 5955 5956 5956 5957 5957 5958 5959 5959 5959 5960 5960 5960 5960 5961 5961 5962 5963 5964 5965 5966 5966 5967 5968 5968 5969 5969 5970 5970 5970 5971 5972 5973 5974 5975 5975 5976 5976 5977 5977 5978 5979 5979 5980 5981 5981 5982 5982 5982 5983 5983 5984 5984 5984 5984 5984 5984 5983 5983 5983 5982 5981 5981 5981 5980 5979 5978 5977 5976 5975 5974 5972 5969 5968 5966 5965 5963 5962 5960 5958 5956 5955 5953
5952 5953 5954 5955 5955 5956 5956 5957 5957 5958 5958 5959 5959 5959 5960 5960 5960 5961 5961 5962 5963 5964 5965 5966 5967 5967 5968 5968 5969 5970 5970 5970 5971 5971 5972 5973 5974 5975 5975 5976 5976 5977 5977 5978 5979 5979 5980 5981 5981 5982 5982 5982 5983 5983 5983 5983 5984 5983 5983 5983 5982 5982 5981 5981 5981 5980 5979 5978 5978 5977 5976 5975 5973 5971 5969 5967 5966 5964 5963 5961 5959 5958 5956 5954 5952
5951 5952 5953 5954 5955 5956 5956 5956 5956 5957 5957 5958 5958 5959 5959 5960 5960 5960 5961 5961 5962 5963 5964 5965 5966 5966 5967 5968 5969 5969 5970 5970 5971 5971 5971 5972 5973 5974 5974 5975 5976 5976 5977 5977 5978 5979 5979 5980 5981 5981 5981 5982 5982 5982 5982 5982 5983 5983 5982 5982 5982 5981 5981 5980 5980 5979 5978 5978 5977 5976 5975 5974 5973 5971 5968 5966 5965 5964 5962 5961 5959 5957 5955 5953 5951
5949 5950 5952 5953 5954 5955 5955 5955 5956 5956 5956 5957 5957 5958 5958 5959 5959 5960 5960 5961 5962 5962 5963 5964 5965 5966 5966 5967 5968 5968 5969 5970 5970 5971 5972 5972 5972 5973 5974 5974 5975 5976 5976 5977 5977 5978 5979 5979 5980 5980 5981 5981 5982 5982 5982 5982 5982 5982 5981 5981 5981 5980 5980 5979 5979 5978 5977 5977 5976 5975 5974 5973 5972 5970 5968 5966 5965 5963 5962 5960 5958 5956 5955 5953 5950
5947 5949 5950 5951 5952 5953 5954 5954 5954 5955 5955 5956 5956 5957 5958 5958 5959 5959 5960 5961 5961 5962 5963 5963 5964 5965 5965 5966 5967 5967 5968 5969 5970 5970 5971 5972 5972 5973 5973 5974 5974 5975 5976 5976 5977 5977 5978 5979 5979 5980 5980 5981 5981 5981 5981 5981 5981 5981 5981 5980 5980 5980 5979 5979 5978 5978 5977 5976 5976 5975 5974 5972 5971 5969 5967 5965 5964 5963 5961 5959 5957 5955 5954 5952 5949
5946 5947 5948 5950 5950 5951 5952 5953 5953 5953 5954 5954 5955 5956 5956 5957 5958 5959 5959 5960 5961 5962 5962 5963 5963 5964 5964 5965 5966 5966 5967 5968 5969 5969 5970 5971 5972 5972 5972 5973 5973 5974 5975 5975 5976 5976 5977 5978 5978 5979 5979 5980 5980 5980 5980 5980 5980 5980 5980 5980 5979 5979 5979 5978 5978 5977 5977 5976 5975 5974 5973 5971 5970 5968 5967 5965 5963 5962 5960 5958 5956 5954 5953 5951 5949
5944 5945 5947 5948 5949 5949 5950 5951 5951 5952 5952 5953 5953 5954 5955 5956 5957 5958 5959 5960 5960 5961 5962 5962 5963 5963 5963 5964 5964 5965 5966 5966 5967 5968 5969 5970 5970 5971 5971 5972 5972 5973 5973 5974 5975 5975 5976 5976 5977 5978 5978 5979 5979 5979 5979 5979 5979 5979 5979 5978 5978 5978 5977 5977 5977 5976 5976 5975 5974 5973 5971 5970 5969 5967 5966 5964 5962 5961 5959 5957 5955 5953 5952 5950 5948
5942 5943 5945 5946 5947 5948 5948 5949 5950 5950 5951 5952 5952 5953 5954 5955 5956 5957 5958 5959 5959 5960 5961 5961 5962 5962 5962 5963 5963 5964 5964 5965 5966 5967 5967 5968 5969 5970 5970 5971 5971 5972 5972 5973 5974 5974 5974 5975 5976 5976 5977 5977 5977 5977 5977 5977 5977 5977 5977 5976 5976 5976 5976 5976 5976 5975 5974 5974 5972 5971 5970 5969 5967 5966 5964 5963 5961 5960 5958 5956 5954 5952 5950 5949 5947
5940 5941 5943 5944 5945 5945 5946 5948 5948 5949 5950 5951 5951 5952 5953 5954 5955 5956 5957 5957 5958 5959 5959 5960 5961 5961 5961 5962 5962 5963 5963 5964 5965 5965 5966 5967 5968 5968 5969 5969 5970 5970 5971 5972 5972 5973 5973 5974 5974 5974 5975 5975 5975 5975 5975 5976 5976 5976 5975 5974 5974 5974 5974 5974 5974 5973 5973 5972 5970 5969 5968 5967 5965 5964 5963 5961 5960 5958 5957 5955 5953 5951 5949 5947 5945
5938 5939 5940 5941 5942 5943 5945 5946 5947 5948 5949 5950 5951 5951 5952 5953 5954 5954 5955 5956 5957 5957 5958 5959 5960 5960 5960 5961 5961 5962 5962 5963 5964 5964 5965 5966 5966 5967 5967 5968 5968 5969 5969 5970 5971 5971 5972 5972 5972 5972 5973 5973 5973 5973 5973 5974 5974 5974 5973 5972 5972 5972 5972 5972 5972 5971 5970 5969 5969 5968 5967 5966 5964 5963 5961 5960 5958 5957 5955 5954 5952 5950 5948 5946 5944
5935 5937 5938 5939 5940 5941 5943 5944 5945 5946 5948 5949 5949 5950 5951 5952 5952 5953 5954 5954 5955 5956 5957 5957 5958 5959 5960 5960 5960 5961 5961 5962 5962 5963 5964 5964 5965 5965 5966 5966 5967 5967 5968 5968 5969 5969 5970 5970 5970 5970 5971 5971 5970 5971 5971 5972 5972 5972 5972 5971 5970 5970 5970 5969 5969 5969 5968 5967 5967 5966 5965 5964 5963 5961 5960 5958 5957 5955 5954 5952 5950 5948 5946 5944 5942
5933 5934 5935 5937 5938 5940 5941 5942 5943 5945 5946 5947 5948 5948 5949 5950 5951 5952 5952 5953 5954 5954 5955 5956 5957 5958 5958 5959 5960 5960 5961 5961 5961 5962 5962 5963 5963 5964 5964 5965 5965 5966 5966 5967 5967 5968 5968 5968 5969 5969 5969 5969 5968 5968 5969 5970 5970 5970 5970 5969 5968 5968 5967 5967 5967 5966 5966 5965 5965 5964 5963 5962 5961 5960 5958 5957 5955 5954 5952 5950 5949 5947 5945 5943 5941
5930 5932 5933 5935 5937 5938 5939 5940 5941 5943 5944 5945 5945 5946 5947 5948 5949 5950 5951 5952 5952 5953 5954 5955 5956 5956 5957 5958 5959 5960 5960 5960 5960 5961 5961 5962 5962 5962 5963 5963 5964 5964 5965 5965 5965 5966 5966 5967 5967 5967 5967 5967 5966 5966 5966 5967 5967 5968 5967 5966 5966 5965 5965 5965 5964 5964 5964 5963 5963 5962 5961 5960 5959 5958 5957 5955 5954 5952 5951 5949 5947 5946 5944 5942 5940
5928 5929 5931 5933 5934 5935 5937 5938 5940 5941 5943 5943 5943 5944 5945 5946 5947 5948 5949 5950 5951 5952 5953 5953 5954 5955 5956 5957 5958 5958 5959 5959 5959 5960 5960 5960 5961 5961 5961 5962 5962 5962 5963 5963 5963 5964 5964 5965 5965 5965 5965 5964 5964 5964 5964 5964 5965 5965 5964 5964 5963 5963 5963 5962 5962 5961 5961 5961 5960 5960 5959 5958 5957 5956 5955 5954 5952 5951 5949 5947 5946 5944 5943 5941 5938
5925 5927 5929 5930 5932 5933 5935 5936 5938 5939 5941 5941 5942 5942 5943 5944 5945 5946 5947 5948 5949 5950 5951 5952 5952 5953 5954 5955 5956 5957 5957 5958 5958 5959 5959 5959 5959 5959 5959 5960 5960 5960 5961 5961 5961 5962 5962 5963 5963 5963 5963 5963 5962 5962 5962 5962 5962 5962 5962 5961 5961 5960 5960 5959 5959 5958 5958 5958 5957 5957 5956 5955 5954 5954 5953 5952 5950 5949 5947 5946 5944 5943 5941 5939 5937
5923 5925 5926 5928 5929 5931 5932 5934 5935 5937 5938 5939 5940 5940 5941 5942 5942 5943 5944 5945 5947 5948 5949 5950 5951 5952 5952 5953 5954 5955 5955 5956 5957 5957 5957 5957 5958 5958 5958 5958 5958 5958 5959 5959 5959 5960 5960 5961 5961 5961 5961 5961 5961 5960 5960 5960 5960 5960 5960 5959 5959 5958 5957 5957 5956 5956 5955 5955 5954 5954 5954 5952 5951 5951 5950 5949 5948 5946 5945 5943 5942 5941 5939 5937 5935
5920 5922 5923 5925 5926 5928 5930 5931 5933 5934 5936 5937 5937 5938 5939 5939 5940 5941 5942 5943 5944 5945 5946 5947 5948 5949 5950 5951 5952 5953 5954 5954 5955 5955 5955 5956 5956 5956 5956 5956 5956 5956 5957 5957 5957 5958 5959 5959 5960 5959 5959 5958 5958 5958 5958 5958 5958 5957 5957 5957 5956 5956 5955 5955 5954 5953 5952 5952 5951 5951 5950 5949 5948 5947 5946 5945 5945 5944 5942 5941 5940 5939 5937 5935 5933
5917 5919 5920 5922 5923 5925 5927 5928 5930 5932 5933 5934 5935 5935 5936 5936 5937 5938 5939 5940 5941 5942 5944 5945 5946 5947 5948 5949 5950 5951 5951 5952 5952 5953 5953 5953 5954 5955 5955 5954 5954 5955 5955 5955 5955 5956 5957 5958 5958 5957 5957 5956 5956 5956 5955 5955 5955 5955 5955 5955 5954 5953 5953 5953 5952 5950 5950 5949 5948 5947 5947 5946 5945 5944 5943 5942 5941 5941 5940 5938 5937 5936 5935 5933 5931
5915 5916 5918 5919 5921 5922 5924 5926 5928 5929 5930 5931 5932 5932 5933 5933 5934 5935 5937 5938 5939 5940 5941 5941 5943 5944 5945 5947 5947 5948 5949 5950 5950 5950 5950 5951 5952 5952 5952 5952 5953 5953 5953 5953 5953 5954 5955 5956 5956 5956 5955 5954 5954 5954 5953 5953 5953 5952 5952 5952 5952 5951 5951 5951 5950 5948 5947 5946 5945 5944 5944 5943 5942 5941 5940 5939 5938 5937 5936 5935 5934 5933 5932 5931 5929
5912 5913 5915 5916 5918 5920 5922 5923 5925 5926 5927 5927 5928 5929 5930 5930 5931 5933 5934 5935 5937 5938 5938 5939 5940 5941 5942 5943 5944 5945 5946 5947 5946 5946 5947 5948 5949 5950 5950 5950 5950 5952 5951 5950 5950 5952 5953 5954 5954 5954 5953 5952 5952 5951 5951 5950 5950 5950 5950 5949 5949 5949 5949 5948 5947 5946 5945 5943 5942 5941 5941 5940 5939 5938 5937 5936 5935 5934 5933 5932 5931 5930 5930 5928 5927
5909 5911 5912 5914 5915 5917 5919 5920 5921 5923 5924 5924 5925 5926 5927 5927 5929 5930 5932 5933 5935 5936 5936 5936 5937 5938 5939 5940 5941 5942 5943 5943 5943 5943 5943 5944 5946 5947 5947 5947 5949 5950 5948 5946 5947 5949 5951 5951 5952 5951 5951 5950 5950 5949 5949 5948 5948 5947 5947 5947 5946 5946 5946 5945 5944 5943 5942 5941 5939 5938 5938 5937 5936 5935 5934 5933 5932 5931 5930 5929 5928 5927 5927 5926 5924